Location: Pradons
(44.4746°N, 4.3578°E)
Time: 14:12:27
(UTC+00:00)

Cosmos 1656 Rocket - Pass Details

Date: 09 April 2020
Orbit: 795 x 846 km, 71.1° (Epoch: 27 May)

Event Time Altitude Azimuth Distance (km) Brightness Sun altitude
Rises 19:04:56 0° 332° (NNW) 3,407 7.7 -8.5°
Reaches altitude 10° 19:07:25 10° 331° (NNW) 2,463 6.9 -8.9°
Maximum altitude 19:13:02 72° 248° (WSW) 875 4.0 -9.8°
Drops below altitude 10° 19:18:33 10° 165° (SSE) 2,415 5.7 -10.7°
Sets 19:20:57 0° 163° (SSE) 3,335 6.4 -11.1°
Enters shadow 19:20:59 - 163° (SSE) 3,348 6.4 -11.1°
